Regional Weather Roundup
Issued by NWS

Home | Current Version | Previous Version | Text Only | Print | Product List | Glossary On
Versions: 1 2 3 4 5 6 7 8 9 10 11 12 13 14 15 16 17 18 19 20 21 22 23 24 25 26 27 28 29 30 31 32 33 34 35 36 37 38 39 40 41 42 43 44 45 46 47 48 49 50
000
ASUS45 KPSR 190310
RWRAZ

ARIZONA REGIONAL HOURLY WEATHER ROUNDUP
NATIONAL WEATHER SERVICE PHOENIX AZ
800 PM MST THU DEC 18 2014

NOTE: FAIR INDICATES FEW OR NO CLOUDS BELOW 12,000 FEET WITH NO
SIGNIFICANT WEATHER AND/OR OBSTRUCTIONS TO VISIBILITY.

AZZ001>003-036-190400-
NORTHWEST ARIZONA

CITY           SKY/WX    TMP DP  RH WIND       PRES   REMARKS
BULLHEAD CITY  CLEAR     55  41  58 NE8       30.19R
KINGMAN        CLEAR     39  35  86 E8        30.21R WCI  33
$$

AZZ004>008-015-016-018-190400-
NORTH CENTRAL ARIZONA

CITY           SKY/WX    TMP DP  RH WIND       PRES   REMARKS
GRAND CANYON   MOCLDY    26  24  92 CALM      30.19R
PRESCOTT       CLEAR     33  26  75 S3        30.18R
FLAGSTAFF      CLEAR     24  22  91 CALM      30.18R FOG
PAYSON         MOCLDY    36  32  87 CALM      30.19R
PAGE           CLEAR     40  31  70 SE3       30.17R
$$

AZZ009>014-017-190400-
NORTHEAST ARIZONA

CITY           SKY/WX    TMP DP  RH WIND       PRES   REMARKS
WINSLOW        CLEAR     32  29  88 W8        30.19R WCI  25
SAINT JOHNS    PTCLDY    30  30 100 SW3       30.16R
WINDOW ROCK    MOCLDY    30  26  85 S3        30.17R
SHOW LOW       PTCLDY    27  27 100 CALM      30.18S
$$

AZZ023-190400-
GREATER PHOENIX AREA

CITY           SKY/WX    TMP DP  RH WIND       PRES   REMARKS
PHOENIX        CLEAR     54  44  69 SW6       30.14R
BUCKEYE          N/A     48  48 100 CALM      30.16R
GLENDALE       PTCLDY    52  45  76 CALM      30.16R
LUKE AFB       CLEAR     52  45  76 SW2       30.15R
DEER VALLEY    CLEAR     50  43  77 CALM      30.14R
SCOTTSDALE     CLEAR     52  42  69 CALM      30.16R
MESA-GATEWAY   PTCLDY    48  45  87 CALM      30.17R
CHANDLER       CLEAR     52  45  76 CALM      30.16R
$$

AZZ027-028-190400-
SOUTHWEST MARICOPA COUNTY AND PINAL COUNTY

CITY           SKY/WX    TMP DP  RH WIND       PRES   REMARKS
CASA GRANDE    CLEAR     48  45  87 CALM      30.16R
GILA BEND      CLEAR     51  47  86 S5        30.17R
$$

AZZ503-504-507>509-190400-
SOUTHEAST ARIZONA

CITY           SKY/WX    TMP DP  RH WIND       PRES   REMARKS
TUCSON         CLEAR     50  40  68 CALM      30.18R
DAVIS-MONTHAN  CLEAR     46  40  79 W3        30.15R
RYAN FIELD       N/A     48  46  93 CALM      30.17R
NOGALES        CLEAR     40  36  86 E5        30.16R
SIERRA VISTA   MOCLDY    43  37  81 W7        30.17R
DOUGLAS        CLEAR     39  36  89 NW9       30.16R WCI  33
SAFFORD        PTCLDY    44  41  89 W7        30.14R
$$

AZZ020-021-025-026-031-190400-
SOUTHWEST ARIZONA

CITY           SKY/WX    TMP DP  RH WIND       PRES   REMARKS
YUMA           PTCLDY   N/A N/A N/A N7        30.17F
$$

CAZ031-033-041-043-047-048-061-190400-
SOUTHERN CALIFORNIA

CITY           SKY/WX    TMP DP  RH WIND       PRES   REMARKS
DOWNTOWN L.A.  CLEAR     57  49  74 CALM      30.19R
L.A. AIRPORT   PTCLDY    56  52  86 VRB3      30.19R
SAN DIEGO      MOCLDY    62  50  64 CALM      30.21R
BURBANK        CLEAR     55  46  71 CALM      30.18R
ONTARIO        PTCLDY    55  45  68 W3        30.19R
RIVERSIDE      CLEAR     54  45  71 CALM      30.19R
PALM SPRINGS   CLEAR     59  43  55 NW5       30.19R
EL CENTRO NAS  MOCLDY    57  44  62 CALM      30.17R
IMPERIAL       MOCLDY    56  43  61 CALM      30.17R
BLYTHE         CLEAR     54  47  77 NW3       30.18R
NEEDLES        CLEAR     54  42  64 NW6       30.18R
$$

NVZ020-UTZ003-190400-
SOUTHERN NEVADA-UTAH

CITY           SKY/WX    TMP DP  RH WIND       PRES   REMARKS
LAS VEGAS      CLEAR     51  38  60 S6        30.16R
SALT LAKE CITY PTCLDY    35  30  82 S5        30.17S WCI  31
$$

NMZ009-TXZ055-190400-
NEW MEXICO-WEST TEXAS

CITY           SKY/WX    TMP DP  RH WIND       PRES   REMARKS
ALBUQUERQUE    CLOUDY    39  28  64 CALM      30.13R
EL PASO        LGT RAIN  48  40  73 VRB7      30.13R
$$


........................KEY........................
SKY/WX - SKY CONDITION/WEATHER
TMP    - TEMPERATURE IN FAHRENHEIT
DP     - DEW POINT IN FAHRENHEIT
RH     - RELATIVE HUMIDITY IN PERCENT
WIND   - DIRECTION AND SPEED IN MILES PER HOUR (MPH)
VRB    - VARIABLE WIND DIRECTION
PRES   - MEAN SEA LEVEL PRESSURE IN INCHES OF MERCURY
         F - FALLING PRESSURE   R - RISING PRESSURE
         S - STEADY PRESSURE
VSB    - VISIBILITY IN MILES
HX     - HEAT INDEX IN FAHRENHEIT
WCI    - WIND CHILL INDEX IN FAHRENHEIT
TC     - TEMPERATURE IN CELSIUS WHICH IS ALSO KNOWN AS
         TEMPERATURE IN CENTIGRADE
AFB    - AIR FORCE BASE
         LUKE AFB IS LUKE AIR FORCE BASE
         DAVIS-MONTHAN IS DAVIS-MONTHAN AIR FORCE BASE
NAS    - NAVAL AIR STATION
         EL CENTRO NAS IS EL CENTRO NAVAL AIR STATION
N/A    - NOT AVAILABLE


USA.gov is the U.S. government's official web portal to all federal, state and local government web resources and services.